This is the latest recevied weather packets stored in our database for station/object WZ9ZZZ-1. If no packets are shown the sender has not sent any weather packets the latest 10 day(s).
| Time | Temp. | Humidity | Pressure | Rain* | Wind** | Luminosity | Snow |
|---|---|---|---|---|---|---|---|
| 1777854291 | 22.78° C | 54% | 1021.9 hPa | 0 mm | - | 15 W/m² | - |
| 1777853988 | 22.78° C | 53% | 1021.9 hPa | 0 mm | - | 21 W/m² | - |
| 1777853685 | 22.78° C | 53% | 1022 hPa | 0 mm | - | 25 W/m² | - |
| 1777853382 | 22.78° C | 53% | 1021.9 hPa | 0 mm | - | 28 W/m² | - |
| 1777853079 | 23.33° C | 53% | 1021.9 hPa | 0 mm | - | 29 W/m² | - |
| 1777852776 | 23.33° C | 52% | 1021.9 hPa | 0 mm | - | 37 W/m² | - |
| 1777852474 | 23.33° C | 51% | 1021.9 hPa | 0 mm | - | 35 W/m² | - |
| 1777852171 | 23.89° C | 50% | 1022.3 hPa | 0 mm | - | 53 W/m² | - |
| 1777851869 | 23.89° C | 49% | 1022.1 hPa | 0 mm | - | 42 W/m² | - |
| 1777851567 | 23.89° C | 49% | 1022.4 hPa | 0 mm | - | 46 W/m² | - |
| 1777851263 | 23.89° C | 49% | 1022.5 hPa | 0 mm | - | 58 W/m² | - |
| 1777850959 | 23.89° C | 47% | 1022.3 hPa | 0 mm | - | 128 W/m² | - |
| 1777850656 | 24.44° C | 47% | 1022.1 hPa | 0 mm | - | 186 W/m² | - |
| 1777850354 | 24.44° C | 47% | 1022.3 hPa | 0 mm | - | 99 W/m² | - |
| 1777850051 | 24.44° C | 47% | 1022.6 hPa | 0 mm | - | 78 W/m² | - |
| 1777849748 | 25° C | 46% | 1022.5 hPa | 0 mm | - | 56 W/m² | - |
| 1777849444 | 25° C | 47% | 1022.4 hPa | 0 mm | - | 67 W/m² | - |
| 1777849142 | 25° C | 48% | 1022.5 hPa | 0 mm | - | 84 W/m² | - |
| 1777848838 | 25° C | 48% | 1022.6 hPa | 0 mm | - | 125 W/m² | - |
| 1777848534 | 25° C | 47% | 1022.5 hPa | 0 mm | - | 150 W/m² | - |
| 1777848231 | 25° C | 47% | 1022.5 hPa | 0 mm | - | 147 W/m² | - |
| 1777847929 | 25.56° C | 46% | 1022.7 hPa | 0 mm | - | 108 W/m² | - |
| 1777847627 | 25° C | 47% | 1022.6 hPa | 0 mm | - | 335 W/m² | - |
| 1777847322 | 26.11° C | 45% | 1022.9 hPa | 0 mm | - | 342 W/m² | - |
| 1777847021 | 25.56° C | 46% | 1022.8 hPa | 0 mm | - | 390 W/m² | - |
* Rain latest hour (hover to see other rain measurements)
** Current wind speed in m/s (hover to see current wind gust speed)